Location: Hamburg
(53.5500°N, 10.0000°E)
Time: 08:26:37
(UTC+02:00)

A-11 Canister half - All Passes

Search period start: 02 September 2015 00:00
Search period end: 12 September 2015 00:00
Orbit: 1525 x 1684 km, 47.3° (Epoch: 31 August)

Date Brightness Start Highest point End Pass type
(mag) Time Alt. Az. Time Alt. Az. Time Alt. Az.
02 Sep - 01:41:56 10° WSW 01:51:41 62° S 02:01:37 10° ESE visible
02 Sep - 03:46:32 10° W 03:55:58 47° SSW 04:05:26 10° SE visible
02 Sep - 05:52:10 10° W 05:59:22 22° SW 06:06:16 10° S visible
02 Sep - 21:15:35 10° S 21:22:26 23° SE 21:29:44 10° E visible
02 Sep - 23:16:38 10° SW 23:25:50 49° SSE 23:35:21 10° E visible
03 Sep - 01:20:23 10° WSW 01:30:07 62° S 01:40:03 10° ESE visible
03 Sep - 03:24:57 10° W 03:34:25 48° SSW 03:43:56 10° SE visible
03 Sep - 05:30:29 10° W 05:37:52 23° SW 05:45:00 10° S visible
03 Sep - 20:54:19 10° S 21:00:58 22° SE 21:08:03 10° E visible
03 Sep - 22:55:10 10° SW 23:04:17 47° SSE 23:13:45 10° E visible
04 Sep - 00:58:51 10° WSW 01:08:32 62° S 01:18:29 10° ESE visible
04 Sep - 03:03:24 10° W 03:12:52 49° SSW 03:22:26 10° SE visible
04 Sep - 05:08:49 10° W 05:16:22 24° SW 05:23:41 10° S visible
04 Sep - 20:33:05 10° S 20:39:29 21° SE 20:46:20 10° E visible
04 Sep - 22:33:42 10° SW 22:42:45 46° SSE 22:52:09 10° E visible
05 Sep - 00:37:19 10° WSW 00:46:59 62° S 00:56:54 10° ESE visible
05 Sep - 02:41:50 10° W 02:51:19 50° SSW 03:00:55 10° SE visible
05 Sep - 04:47:09 10° W 04:54:53 25° SW 05:02:22 10° S visible
05 Sep - 20:11:53 10° S 20:18:01 20° SE 20:24:37 10° E daylight
05 Sep - 22:12:15 10° SW 22:21:14 45° SSE 22:30:33 10° E visible
06 Sep - 00:15:47 10° WSW 00:25:25 62° S 00:35:19 10° E visible
06 Sep - 02:20:16 10° W 02:29:46 51° SSW 02:39:24 10° SE visible
06 Sep - 04:25:31 10° W 04:33:22 26° SW 04:41:02 10° S visible
06 Sep - 19:50:42 10° S 19:56:32 19° SE 20:02:52 10° E daylight
06 Sep - 21:50:48 10° SW 21:59:42 44° SSE 22:08:57 10° E visible
06 Sep - 23:54:15 10° WSW 00:03:51 62° S 00:13:44 10° E visible
07 Sep - 01:58:42 10° W 02:08:13 52° SSW 02:17:53 10° SE visible
07 Sep - 04:03:53 10° W 04:11:51 27° SW 04:19:41 10° S visible
07 Sep - 19:29:32 10° SSE 19:35:04 18° SE 19:41:06 10° E daylight
07 Sep - 21:29:21 10° SW 21:38:10 43° SSE 21:47:20 10° E visible
07 Sep - 23:32:44 10° WSW 23:42:17 61° S 23:52:09 10° E visible
08 Sep - 01:37:09 10° W 01:46:40 53° SSW 01:56:21 10° SE visible
08 Sep - 03:42:15 10° W 03:50:21 28° SW 03:58:20 10° SSE visible
08 Sep - 19:08:24 10° SSE 19:13:37 17° SE 19:19:19 10° E daylight
08 Sep - 21:07:56 10° SW 21:16:40 42° SSE 21:25:45 10° E visible
08 Sep - 23:11:13 10° WSW 23:20:44 61° S 23:30:34 10° E visible
09 Sep - 01:15:36 10° W 01:25:07 54° SSW 01:34:49 10° SE visible
09 Sep - 03:20:38 10° W 03:28:50 29° SW 03:36:57 10° SSE visible
09 Sep - 18:47:19 10° SSE 18:52:09 16° SE 18:57:30 10° E daylight
09 Sep - 20:46:30 10° SW 20:55:09 40° SSE 21:04:08 10° E visible
09 Sep - 22:49:41 10° WSW 22:59:11 60° S 23:08:59 10° E visible
10 Sep - 00:54:03 10° W 01:03:33 55° SSW 01:13:17 10° SE visible
10 Sep - 02:59:02 10° W 03:07:19 30° SW 03:15:34 10° SSE visible
10 Sep - 18:26:16 10° SSE 18:30:41 15° SE 18:35:39 10° E daylight
10 Sep - 20:25:05 10° SSW 20:33:38 39° SSE 20:42:32 10° E visible
10 Sep - 22:28:10 10° WSW 22:37:38 60° S 22:47:24 10° E visible
11 Sep - 00:32:30 10° W 00:42:01 55° SSW 00:51:44 10° ESE visible
11 Sep - 02:37:26 10° W 02:45:49 31° SW 02:54:10 10° SSE visible
11 Sep - 18:05:17 10° SSE 18:09:14 14° SE 18:13:44 10° E daylight
11 Sep - 20:03:40 10° SSW 20:12:08 38° SSE 20:20:56 10° E visible
11 Sep - 22:06:39 10° WSW 22:16:04 59° S 22:25:49 10° E visible
